Dewpoint
5 8 10 11 11 11 11 10 8 8 5 1 2 6 5 9 11 11 11 10 10 11 11 12 11 11 11 10 7 5 2 1 -1 -1 1 1 1 1 0 0 -3 -5 -8
12 12 11 9 9 10 11 10 10 10 6 2 7 9 10 11 11 12 11 10 10 11 10 11 12 11 11 9 7 5 -0 -2 -1 -4 -0 2 1 1 1 1 0 -1 -4
9 11 12 9 9 10 8 7 9 11 9 7 9 10 10 11 12 12 10 10 11 10 10 11 11 11 11 9 7 4 -8 -3 -1 -4 -4 1 2 1 1 1 1 0 -2
2 7 9 9 10 9 6 6 7 11 10 10 10 11 10 12 12 11 10 10 10 10 10 10 10 10 11 8 7 4 -3 -9 -5 -3 -3 1 1 1 1 1 1 1 -0
-6 5 9 10 9 5 4 4 5 11 12 10 11 11 11 12 11 10 10 10 10 10 10 11 11 10 9 8 7 6 2 -6 -7 -5 4 5 4 1 1 1 0 1 0
0 3 6 9 7 4 3 5 11 8 12 11 11 11 11 11 11 10 11 11 10 11 11 11 10 8 7 7 6 5 5 0 -5 2 4 4 3 2 3 2 1 1 -0
2 5 8 8 6 5 9 9 11 12 12 11 11 10 10 10 9 9 10 9 9 11 11 10 10 9 8 8 8 7 7 4 -4 1 2 3 4 4 3 2 0 1 -0
-2 6 7 9 7 8 7 6 7 4 11 11 11 10 10 9 9 9 8 8 7 9 10 10 9 7 8 9 8 8 8 5 -3 -2 1 2 3 4 3 3 0 -0 -1
-5 4 8 10 9 11 10 8 8 7 7 10 12 11 10 10 10 9 8 7 6 5 7 8 7 5 9 9 9 8 8 5 -2 -0 2 3 4 4 4 3 3 1 -2
2 4 9 11 10 7 8 9 9 9 10 11 12 11 10 9 10 9 8 7 6 -1 4 7 5 6 9 8 9 8 7 4 -3 1 3 3 4 4 4 4 3 0 -1
5 9 11 11 10 9 8 9 8 6 8 12 12 11 10 10 10 8 7 5 3 -6 -2 1 3 7 8 8 9 6 5 4 0 2 2 2 4 4 4 2 -2 -6 -3
5 8 10 11 11 9 11 9 9 11 11 12 11 11 10 10 9 9 8 5 -4 -7 -3 -2 4 6 7 8 8 6 5 5 3 3 3 3 4 4 4 3 -2 -9 -3
5 8 10 11 11 9 9 8 9 8 6 11 11 11 10 10 10 9 6 4 -5 -7 -5 -4 1 3 5 7 6 4 1 4 4 4 4 4 4 3 2 -0 -5 -13 -6
10 9 10 11 11 11 9 9 10 7 6 10 11 11 10 10 10 10 6 4 -5 -8 -6 -4 -0 2 4 4 5 3 1 2 3 3 2 3 0 -4 -4 -4 -19 -19 -16
7 11 10 10 11 11 12 10 9 8 10 7 10 12 11 10 10 9 6 3 -4 -6 -3 -2 -1 1 1 2 2 0 -0 2 2 2 1 -3 -5 -6 -4 -18 -21 -20 -19
3 7 9 11 11 12 11 11 11 8 9 9 10 11 11 10 11 9 7 4 -2 -3 1 1 1 2 -1 -4 -6 -7 -9 -4 -4 -7 -10 -11 -9 -8 -16 -19 -18 -18 -19
1 4 8 9 10 10 11 8 9 10 10 11 10 11 10 11 10 9 7 6 2 -0 0 2 3 -1 -10 -12 -13 -15 -14 -15 -16 -16 -16 -14 -17 -18 -20 -20 -19 -19 -19
2 4 7 9 10 10 10 9 8 9 10 11 11 11 10 11 10 9 8 8 5 3 2 2 3 -4 -12 -15 -16 -17 -18 -19 -18 -18 -18 -18 -19 -19 -21 -21 -20 -19 -20
1 3 5 8 9 9 9 9 11 9 11 11 11 11 11 11 10 9 9 8 6 5 4 3 2 -4 -10 -13 -15 -17 -18 -19 -18 -18 -18 -18 -18 -18 -19 -19 -18 -19 -20
1 2 4 8 7 6 7 9 10 10 9 10 11 11 11 10 10 10 10 9 7 6 5 4 3 -1 -7 -10 -12 -13 -15 -17 -18 -17 -18 -17 -16 -16 -17 -18 -18 -18 -20
-1 1 3 5 6 7 9 10 10 11 10 9 8 8 10 10 7 10 10 9 6 6 5 5 4 2 -3 -6 -8 -10 -12 -14 -16 -18 -18 -18 -16 -15 -16 -18 -18 -18 -18
-1 0 2 4 5 6 7 7 8 9 10 11 9 8 8 10 9 9 10 9 7 6 6 5 4 3 1 -2 -4 -6 -8 -9 -12 -15 -16 -16 -14 -16 -16 -18 -18 -16 -18
-1 -1 -0 1 3 6 7 7 8 9 10 11 10 11 10 10 10 10 10 10 9 8 6 6 5 5 4 2 -1 -4 -5 -6 -8 -11 -11 -10 -10 -13 -13 -15 -14 -15 -18
-1 -0 2 0 2 4 6 6 8 9 9 9 10 10 10 9 10 9 9 9 9 8 7 7 6 6 6 5 1 0 -3 -4 -5 -7 -7 -7 -7 -9 -11 -11 -10 -10 -11
-8 -3 -1 -1 1 3 5 6 6 7 7 8 8 8 9 10 10 9 9 9 8 9 9 8 8 7 7 7 5 2 2 -1 -2 -4 -5 -5 -6 -8 -9 -10 -9 -8 -7
-11 -13 -13 -8 -2 1 3 4 4 6 7 7 5 7 8 8 9 9 9 9 9 9 9 9 9 8 8 7 7 5 5 3 1 -2 -3 -4 -5 -7 -9 -10 -11 -9 -8
Wind_Speed
37 47 46 46 42 42 43 40 39 41 42 44 46 45 45 40 35 32 28 25 25 26 26 29 27 25 24 22 18 18 19 22 22 24 21 16 11 8 7 8 8 10 11
33 42 46 48 43 41 43 28 43 41 44 48 48 46 43 39 33 33 28 27 28 28 27 28 31 28 28 25 21 21 25 24 24 23 21 13 10 7 3 2 5 8 9
40 42 49 49 46 49 42 40 44 49 48 49 48 45 44 38 39 36 32 31 30 28 27 27 27 28 29 27 23 22 25 29 25 19 7 10 6 12 8 5 2 4 7
39 45 50 53 54 49 42 37 46 53 53 50 52 50 50 48 45 39 35 32 30 30 28 27 27 27 29 28 22 21 22 25 26 24 9 5 4 10 9 10 8 6 4
40 44 49 55 56 45 46 51 41 45 57 54 52 50 51 48 44 40 35 31 31 29 29 29 29 28 28 24 23 22 22 24 21 23 14 9 7 8 6 11 15 12 7
40 44 46 56 60 47 39 44 40 52 61 57 52 52 53 51 46 39 35 34 33 33 30 30 29 26 24 23 22 20 19 20 19 18 14 11 12 12 7 6 12 11 10
36 45 47 44 53 48 35 28 38 44 62 60 58 57 52 49 45 41 37 36 35 37 35 33 32 28 26 23 20 19 20 19 22 23 15 11 10 10 10 10 11 15 13
33 45 51 52 56 53 53 37 41 37 43 59 63 59 52 47 44 41 37 35 35 36 36 36 32 28 29 26 23 21 20 20 21 22 20 17 15 14 14 14 13 14 14
34 46 51 50 55 53 49 51 44 36 44 45 64 58 51 48 45 40 36 35 33 34 34 35 32 30 29 27 25 25 25 24 23 23 21 20 18 16 14 14 16 16 16
35 47 51 48 53 52 50 51 41 37 46 59 62 57 53 45 42 37 37 34 33 34 36 34 31 31 30 28 26 25 26 27 27 27 24 21 20 19 19 19 20 19 18
27 40 46 52 56 53 49 46 45 36 51 61 60 57 50 45 41 37 35 33 34 35 35 34 32 33 32 28 27 25 27 29 28 28 26 22 21 20 20 19 18 18 19
29 41 46 48 51 54 50 48 41 41 45 60 61 56 48 45 40 37 33 33 35 36 35 33 34 34 32 30 29 26 27 31 30 28 26 25 24 24 23 23 19 18 20
22 32 40 40 48 51 55 45 43 27 22 48 57 56 50 45 42 37 34 35 35 36 34 33 34 34 32 31 30 27 24 29 28 28 28 26 25 25 24 22 21 20 21
8 19 27 35 36 44 47 46 52 31 29 45 56 55 53 48 44 38 35 36 36 36 34 34 34 33 31 31 30 28 26 26 26 25 24 25 23 21 21 21 20 20 20
27 7 21 26 29 32 39 45 42 33 32 23 49 60 53 47 45 39 37 36 35 35 33 34 34 33 32 32 31 29 27 27 26 25 25 24 21 19 20 19 20 20 20
24 21 16 13 25 28 38 39 42 45 38 30 50 58 54 50 44 41 39 36 35 35 35 35 33 34 34 32 30 28 27 28 27 26 25 23 22 21 21 20 20 18 18
25 20 16 9 8 18 31 36 39 38 37 42 50 57 55 50 44 42 40 37 37 35 35 35 32 34 32 30 30 29 28 27 26 25 24 23 22 22 22 21 21 20 19
29 24 14 6 2 13 20 26 33 35 40 43 51 55 54 51 45 44 42 39 37 37 36 34 33 32 31 30 30 29 28 26 25 24 23 23 22 22 22 21 22 22 20
26 24 17 8 7 7 10 18 38 36 31 43 48 51 55 49 45 46 43 40 39 38 37 34 34 32 31 30 29 29 29 27 26 24 24 24 23 22 22 22 22 23 22
25 27 22 14 1 6 12 17 20 27 31 32 49 41 44 46 45 40 43 42 41 39 36 35 33 31 30 29 28 29 29 28 27 26 25 25 24 23 23 23 23 25 22
31 27 30 31 25 9 10 15 21 27 34 33 34 37 43 42 42 40 42 44 43 39 37 35 33 31 30 29 29 30 29 28 27 27 27 26 25 25 25 24 25 25 21
44 37 37 36 38 31 18 14 4 11 29 45 43 45 43 41 47 45 41 43 40 37 37 36 33 32 31 31 30 30 30 27 27 27 25 25 24 25 25 26 26 26 25
47 44 42 40 39 39 37 26 24 5 23 29 33 46 47 43 39 43 43 36 35 37 37 36 35 35 35 34 31 30 30 29 27 26 24 22 23 25 26 27 26 27 28
48 48 43 46 44 37 36 36 28 20 13 21 27 31 33 41 39 33 33 32 35 36 38 39 38 37 36 34 34 33 33 31 29 29 28 26 24 27 27 28 29 29 30
47 48 44 46 43 39 33 31 31 31 27 20 6 14 30 37 35 31 28 28 28 34 38 38 35 36 37 36 35 35 35 35 32 31 31 32 31 31 33 32 32 31 31
43 45 44 45 46 42 36 35 35 30 26 23 22 21 4 27 26 27 26 26 29 35 38 33 22 25 33 31 29 31 31 32 31 33 35 36 35 34 34 35 35 34 34
Wind_Direction
221 217 215 216 217 208 195 198 204 202 196 191 190 186 189 190 188 194 194 196 192 189 192 191 199 202 198 195 193 186 180 172 162 148 132 123 118 101 75 52 36 37 43
214 212 205 216 215 212 197 211 202 205 199 196 192 192 191 194 197 195 200 202 194 191 190 196 199 200 199 194 194 197 180 174 174 163 141 141 152 157 153 71 23 17 24
223 217 208 214 213 207 206 207 214 210 200 200 196 199 198 202 196 195 198 198 194 195 195 198 204 201 200 200 198 197 190 177 176 178 160 152 177 176 193 208 263 339 7
233 229 217 209 209 210 211 215 224 220 206 207 205 208 206 196 193 194 196 198 203 202 199 202 202 201 202 203 200 195 199 191 178 180 178 167 174 175 183 212 231 265 313
234 229 221 209 205 204 218 221 217 222 212 205 214 204 199 198 195 194 197 199 200 201 201 204 203 203 202 206 201 196 198 200 194 187 180 193 202 206 202 198 212 228 245
235 232 229 212 212 215 218 220 207 204 204 206 208 202 200 198 195 194 199 199 201 202 204 203 204 205 204 201 202 203 202 202 206 191 192 207 206 205 220 220 208 218 235
237 228 218 209 210 208 199 206 203 190 206 210 206 207 208 206 201 202 201 201 202 204 203 201 202 207 208 206 207 212 211 205 209 206 217 219 230 244 244 248 226 213 229
239 225 222 211 211 210 210 202 196 244 212 215 207 208 210 208 209 208 206 208 209 210 204 201 202 208 209 213 216 220 217 212 213 212 219 224 228 240 244 249 254 230 237
237 222 219 208 211 209 209 200 209 215 212 221 207 207 208 208 212 212 213 211 213 214 207 205 203 205 207 211 214 218 218 215 213 211 214 223 226 234 240 249 264 260 251
234 215 210 202 209 214 207 209 207 204 210 215 207 206 206 210 215 216 214 212 212 212 209 207 208 204 206 208 212 217 217 216 212 214 220 225 231 238 248 262 267 264 255
238 206 200 204 208 204 198 202 199 216 208 217 205 206 207 209 213 211 210 210 209 207 207 207 209 206 209 210 215 218 213 215 217 221 228 232 238 244 253 262 260 249 245
228 201 206 201 195 198 197 197 203 201 199 200 206 207 205 207 207 207 208 207 205 206 205 207 207 206 210 215 218 216 215 218 222 226 230 235 241 248 256 259 257 243 243
212 193 199 198 195 202 200 200 195 197 218 217 213 206 205 205 204 207 207 204 204 205 205 207 208 210 214 218 220 221 220 222 227 232 236 242 245 249 252 253 250 241 243
188 187 193 200 195 196 201 198 196 189 204 202 208 209 208 204 204 204 206 204 203 204 206 209 212 216 220 223 222 223 221 224 228 233 235 240 245 248 246 244 243 242 243
30 133 191 201 203 198 197 203 203 197 188 198 210 211 209 205 203 203 205 203 204 203 208 212 215 220 223 223 223 223 224 226 229 233 236 239 242 238 237 236 238 238 239
8 34 59 192 204 203 203 200 203 203 204 214 209 209 204 203 205 202 204 204 203 204 209 213 217 219 220 222 225 228 228 229 232 233 235 233 230 228 230 231 233 236 242
1 20 37 58 187 211 209 215 208 215 224 215 211 212 201 204 205 201 205 207 205 206 211 212 215 218 217 218 221 223 225 228 231 231 231 230 230 228 229 231 232 234 236
16 25 31 52 11 209 215 221 212 209 212 217 214 207 203 206 204 204 207 208 209 210 213 212 216 217 217 218 219 220 221 224 228 229 231 232 233 233 233 232 235 240 242
23 26 21 26 2 234 206 233 211 205 210 210 207 209 204 206 211 206 211 211 211 212 215 216 220 219 219 218 218 219 220 222 225 225 228 230 231 232 235 236 236 239 243
37 36 39 26 358 293 257 235 224 218 211 213 213 210 212 213 211 215 216 215 215 216 217 220 223 226 224 221 221 223 224 225 225 226 227 229 230 233 236 239 242 244 245
36 44 50 53 51 55 231 239 241 214 226 213 192 212 214 214 211 224 223 218 216 217 220 224 226 228 227 225 225 227 228 230 230 232 232 233 231 233 237 240 244 250 251
40 47 52 53 49 49 55 46 39 185 208 218 213 213 219 216 211 219 222 218 219 221 223 225 227 229 231 228 227 230 235 236 236 238 239 241 240 242 243 244 247 249 247
40 41 44 47 47 43 44 43 37 24 200 213 210 219 216 216 221 220 218 217 219 221 225 227 228 229 230 229 229 231 235 238 238 240 241 243 245 247 246 245 247 247 245
35 39 38 41 43 45 42 41 45 52 98 188 210 223 211 193 213 218 214 220 221 220 225 227 228 231 233 233 231 230 229 234 238 238 239 240 241 242 245 244 244 245 246
36 38 40 39 42 44 45 39 37 49 58 64 92 206 221 212 212 211 218 229 246 243 234 229 231 235 237 238 237 236 232 233 238 239 240 240 240 239 239 240 243 245 248
36 38 39 39 42 43 44 45 47 46 45 46 44 33 136 207 210 218 225 245 245 245 240 232 242 254 251 247 243 243 240 238 239 242 243 245 245 245 245 246 246 248 251
Height
1469 1471 1475 1479 1485 1490 1491 1506 1513 1519 1523 1525 1527 1531 1535 1540 1544 1550 1553 1557 1560 1563 1565 1570 1574 1577 1580 1582 1585 1588 1590 1593 1595 1596 1600 1603 1605 1606 1607 1608 1608 1607 1606
1464 1467 1472 1477 1484 1488 1492 1495 1511 1517 1521 1523 1526 1531 1534 1538 1541 1545 1550 1554 1557 1561 1562 1567 1571 1575 1578 1581 1583 1585 1587 1591 1594 1594 1597 1603 1607 1607 1608 1608 1609 1609 1607
1456 1459 1464 1469 1477 1481 1484 1488 1499 1511 1518 1521 1525 1530 1533 1536 1537 1540 1545 1551 1554 1559 1561 1564 1568 1573 1576 1579 1582 1584 1585 1587 1592 1595 1595 1599 1602 1604 1607 1608 1608 1608 1608
1449 1452 1454 1460 1466 1472 1479 1483 1492 1501 1512 1515 1520 1522 1526 1526 1530 1536 1541 1548 1552 1556 1559 1562 1566 1571 1574 1578 1580 1583 1585 1587 1588 1593 1594 1596 1598 1601 1605 1606 1607 1607 1607
1441 1443 1449 1454 1459 1466 1472 1478 1482 1495 1500 1508 1514 1518 1522 1526 1530 1535 1539 1544 1548 1553 1557 1560 1564 1569 1573 1577 1580 1581 1584 1587 1589 1591 1593 1596 1598 1599 1601 1602 1605 1607 1607
1434 1436 1440 1448 1455 1461 1468 1474 1471 1473 1491 1502 1508 1514 1516 1521 1527 1532 1534 1540 1544 1549 1554 1557 1561 1567 1571 1574 1578 1581 1583 1585 1589 1591 1593 1595 1596 1598 1600 1601 1603 1606 1606
1427 1429 1432 1441 1448 1457 1463 1465 1472 1476 1484 1493 1502 1507 1511 1517 1524 1528 1530 1535 1538 1544 1549 1553 1558 1563 1568 1573 1576 1579 1581 1583 1587 1589 1591 1594 1596 1598 1600 1601 1601 1602 1603
1421 1423 1425 1431 1439 1446 1452 1461 1467 1474 1472 1485 1495 1500 1508 1513 1520 1524 1528 1531 1534 1540 1545 1550 1555 1560 1566 1571 1575 1578 1580 1581 1584 1587 1589 1592 1594 1596 1598 1600 1601 1602 1601
1412 1415 1418 1423 1429 1438 1445 1451 1455 1461 1469 1477 1485 1495 1503 1509 1514 1520 1525 1529 1532 1537 1543 1548 1553 1558 1563 1568 1572 1574 1577 1579 1582 1584 1587 1590 1592 1594 1596 1599 1600 1601 1600
1403 1403 1409 1417 1422 1430 1438 1445 1448 1451 1466 1473 1478 1490 1496 1503 1512 1515 1520 1524 1529 1534 1539 1545 1550 1555 1560 1565 1569 1571 1573 1576 1579 1582 1584 1587 1590 1592 1594 1596 1597 1598 1599
1396 1399 1403 1409 1415 1423 1433 1440 1447 1449 1453 1463 1472 1483 1492 1498 1505 1511 1515 1520 1525 1530 1535 1541 1547 1552 1557 1561 1565 1568 1570 1573 1576 1579 1582 1584 1587 1588 1591 1592 1594 1595 1596
1386 1392 1397 1404 1414 1422 1430 1438 1445 1450 1454 1453 1467 1477 1486 1494 1501 1507 1510 1516 1521 1526 1532 1537 1543 1548 1553 1557 1561 1563 1565 1569 1572 1576 1579 1581 1583 1584 1586 1589 1590 1592 1594
1384 1391 1396 1404 1406 1414 1423 1431 1439 1444 1448 1454 1462 1471 1480 1487 1495 1501 1506 1512 1517 1522 1528 1533 1538 1543 1548 1553 1557 1560 1561 1565 1568 1572 1575 1577 1579 1580 1582 1585 1586 1587 1589
1392 1396 1401 1403 1409 1411 1417 1425 1434 1438 1441 1446 1453 1463 1472 1481 1489 1495 1502 1508 1513 1518 1524 1529 1534 1539 1544 1549 1553 1556 1558 1562 1565 1568 1570 1573 1575 1577 1579 1581 1583 1584 1586
1397 1400 1405 1407 1411 1416 1419 1421 1426 1432 1437 1440 1449 1457 1468 1476 1484 1491 1498 1504 1509 1515 1520 1525 1530 1535 1539 1543 1547 1550 1554 1558 1561 1563 1565 1568 1571 1573 1575 1578 1581 1582 1583
1407 1401 1403 1408 1411 1414 1419 1422 1424 1430 1435 1438 1446 1453 1464 1471 1477 1486 1493 1499 1504 1510 1516 1521 1525 1529 1532 1536 1541 1545 1549 1553 1555 1558 1561 1563 1566 1569 1571 1574 1577 1579 1580
1415 1408 1406 1409 1411 1415 1418 1417 1422 1427 1432 1436 1442 1447 1453 1464 1472 1479 1487 1494 1499 1505 1511 1515 1520 1524 1527 1532 1537 1541 1544 1548 1551 1554 1556 1559 1562 1565 1568 1570 1573 1574 1575
1415 1411 1409 1407 1410 1413 1416 1419 1422 1424 1427 1434 1437 1439 1450 1459 1466 1473 1482 1488 1494 1499 1505 1510 1515 1519 1523 1528 1533 1536 1540 1543 1547 1550 1552 1555 1558 1561 1564 1566 1569 1571 1571
1421 1416 1414 1410 1411 1412 1414 1419 1409 1422 1426 1429 1431 1438 1446 1454 1461 1469 1476 1482 1487 1493 1498 1504 1510 1513 1518 1524 1528 1532 1534 1537 1541 1544 1547 1551 1553 1556 1559 1561 1564 1567 1568
1425 1422 1418 1413 1409 1411 1414 1417 1417 1418 1421 1424 1429 1434 1443 1451 1458 1464 1471 1478 1483 1488 1494 1500 1505 1510 1515 1520 1523 1527 1529 1532 1536 1539 1542 1545 1548 1552 1554 1556 1559 1561 1564
1433 1424 1422 1415 1412 1416 1415 1413 1412 1414 1417 1422 1428 1432 1439 1446 1453 1460 1466 1472 1477 1483 1490 1495 1500 1505 1511 1514 1517 1521 1523 1527 1530 1533 1537 1540 1544 1547 1549 1551 1553 1557 1561
1433 1429 1424 1422 1418 1416 1414 1414 1411 1409 1413 1417 1423 1428 1435 1442 1449 1455 1460 1468 1473 1478 1484 1489 1494 1499 1503 1508 1511 1514 1517 1522 1524 1527 1532 1536 1539 1541 1544 1546 1548 1551 1554
1440 1437 1431 1428 1422 1418 1415 1413 1411 1405 1406 1413 1419 1422 1427 1434 1443 1450 1455 1461 1466 1472 1477 1482 1486 1491 1495 1500 1504 1508 1512 1515 1518 1521 1526 1530 1533 1535 1537 1539 1542 1544 1546
1448 1442 1437 1431 1428 1425 1422 1419 1410 1410 1409 1413 1416 1422 1417 1426 1437 1445 1451 1456 1461 1465 1470 1474 1478 1483 1488 1492 1496 1500 1503 1507 1511 1514 1519 1523 1525 1527 1530 1532 1533 1536 1538
1465 1457 1450 1442 1439 1435 1430 1425 1423 1421 1418 1415 1420 1423 1422 1425 1432 1440 1447 1451 1455 1459 1462 1465 1469 1475 1479 1483 1489 1493 1495 1499 1503 1509 1512 1515 1517 1518 1520 1523 1526 1528 1530
1474 1468 1465 1459 1450 1444 1440 1435 1431 1428 1424 1424 1425 1428 1427 1428 1433 1439 1446 1448 1451 1454 1453 1458 1465 1468 1473 1477 1481 1486 1490 1494 1498 1501 1503 1505 1509 1510 1513 1516 1518 1520 1522